SENTINEL-2B (42063 NORAD) Tracking and Keplerian Element Data

This shows tracking and keplerian element data for the satellite.

Feedback or suggestion? Click here.




ElementValue
Catalog42063
NameSENTINEL-2B
Epoch Orbit7118
Epoch Day198.80888804
Epoch Year2018
RAAN273.0833
Inclination98.566
Eccentricity0.00011
Argument of Perigee82.5852
Mean Anonmoly277.5451
Mean Motion14.30819015
Decay Rate-3E-08
L11 42063U 17013A 18198.80888804 -.00000003 00000-0 15664-4 0 9998
L22 42063 98.5660 273.0833 0001100 82.5852 277.5451 14.30819015 71189

Live tracking and technical data element details for SENTINEL-2B (NORAD 42063). SENTINEL-2B can be tracked NOW for your location showing map with azimuth and elevation plus other details from your city location.

Track the satellite on the map from your city or location and see movement details for azimuth, elevation, latitude, longitude, range, height, and movement on the map or in text.







IsCatalogInMostPopularTable: catalog: 42063, numindb: 95
Update: records affected: 1



GetName: 42063 SENTINEL-2B

Hit Count: updated at: Sat, 21 Jul 2018 07:37:18 GMT